Starlink 1327

operational
NORAD ID: 45555 Int'l Des: 2020-025 Owner: SPXS Country: US Constellation: starlink
LEOCIRCULAR

About Starlink 1327

Description loading...

Live Position

Loading 3D Globe...

Upcoming Passes

Altitude History

Altitude vs Time

uPlot chart will show altitude changes over time

Two-Line Element Set

1 45555U 20025AA 26070.19631923 .00114248 00000-0 16949-2 0 9993
2 45555 53.0479 59.3601 0006699 61.9812 298.1874 15.54360168325889
Epoch: Mar 11, 2026 • Age: 11 hours

Current Status

Altitude 400.9 km
Velocity 7.67 km/s
Sub-Earth Point 12.30°N, 94.12°E
Launch Date Apr 22, 2020
Age 5.8 years
Type internet

Technical Details

Classification Payload
Mass 260.00 kg
Dry Mass 248.00 kg
Total Mass 260.00 kg
Length 0.20 m
Diameter 2.80 m
Span 9.00 m
Shape Box + pan
Manufacturer SPXS
Bus Type Starlink
Phase Status In Orbit
Owner/State SPXS/US

Large Constellations

Loading constellations...